Regional Weather Roundup
Issued by NWS Mobile, AL

Home | Current Version | Previous Version | Text Only | Print | Product List | Glossary On
Versions: 1 2 3 4 5 6 7 8 9 10 11 12 13 14 15 16 17 18 19 20 21 22 23 24 25 26 27
000
ASUS44 KMOB 211913
RWRMOB
REGIONAL WEATHER ROUNDUP
NATIONAL WEATHER SERVICE MOBILE AL
200 PM CDT SAT OCT 21 2017

NOTE: "FAIR" INDICATES FEW OR NO CLOUDS BELOW 12,000 FEET WITH NO
      SIGNIFICANT WEATHER AND/OR OBSTRUCTIONS TO VISIBILITY.

  * THESE STATIONS ARE PART OF THE UNIVERSITY OF SOUTH ALABAMA
    MESONET AND ARE NOT UNDER NWS OR FAA QUALITY CONTROL.

ALZ061>064-212000-
COASTAL ALABAMA

CITY           SKY/WX    TMP DP  RH WIND       PRES   REMARKS
MOBILE REG APT CLOUDY    81  69  67 SE16      30.11F
BROOKLEY FIELD PTSUNNY   82  74  76 E12       30.11F
USA CAMPUS*    NOT AVBL
DOG RIVER*     NOT AVBL


CITY           SKY/WX    TMP DP  RH WIND       PRES   REMARKS
GULF SHORES    CLOUDY    80  73  79 E18G30    30.11F

$$

ALZ051>060-212000-
INTERIOR SOUTHWEST AND SOUTH CENTRAL ALABAMA

CITY           SKY/WX    TMP DP  RH WIND       PRES   REMARKS
GREENVILLE     NOT AVBL
EVERGREEN      MOSUNNY   82  66  58 SE9       30.14F
ATMORE*          N/A    N/A N/A N/A SE13        N/A
ANDALUSIA/OPP  MOSUNNY   85  66  53 VRB5      30.14F
ANDALUSIA*       N/A     79  66  65 E9        30.15F
FLORALA APT    MOSUNNY   80  65  59 E8        30.17F
FLORALA*         N/A     81  68  65 N2        30.87F

$$

FLZ001>006-212000-
WESTERN FLORIDA PANHANDLE

CITY           SKY/WX    TMP DP  RH WIND       PRES   REMARKS
PENSACOLA      PTSUNNY   82  71  69 E12       30.12F
NAS PENSACOLA  PTSUNNY   81  71  71 E13       30.11F
MILTON         PTSUNNY   82  69  64 SE12      30.13F
WHTNG S FIELD  PTSUNNY   85  66  53 SE12      30.13F


CITY           SKY/WX    TMP DP  RH WIND       PRES   REMARKS
JAY*             N/A     81  66  61 E9        30.12F
DUKE FIELD     CLOUDY    81  65  57 SE5         N/A
CRESTVIEW      CLOUDY    81  64  56 SE5       30.15F
VALPARAISO     PTSUNNY   81  67  63 SE10      30.13F
DESTIN         PTSUNNY   83  68  60 SE10      30.13F

$$

MSZ076-079-212000-
INTERIOR SOUTHEAST MISSISSIPPI

CITY           SKY/WX    TMP DP  RH WIND       PRES   REMARKS
LEAKESVILLE*     N/A     81  68  65 SE7       30.11F
AGRICOLA*        N/A     79  72  78 E10       30.09F

$$

MARINE OBSERVATIONS

STATION/POSITION TIME  TEMP    WIND        PRES    WAVE
                       AIR SEA DIR/SP/G            HT/PER
                 (UTC) (F)     (DEG/KT/KT) (MB)    (FT/S)
PASCAGOULA       1848   79     110/ 20/ 25 1018.5F
PETIT BOIS ISLND 1848   81     110/ 15/ 20 1019.5F
GRAND BAY        1730   78     110/ 13     1021.0S
KATRINA CUT      1830   78     110/ 19     1019.0F
CEDAR POINT      1830   78     110/ 13     1019.3F
E DAUPHIN ISLAND 1900   78     100/ 18/ 22 1018.6F
MIDDLE BAY LIGHT 1830   78     110/ 16     1019.3F
USCG MOBILE BAY  1848   78 76  120/ 11/ 12 1019.4F
STATE DOCKS      1848   81 77              1019.4F
MEAHER PARK      1830   80      90/  9     1020.0F
WEEKS BAY        1745   82                 1020.0S
FORT MORGAN      1848   79     120/ 20/ 23   N/A
12 S ORANGE BCH  1850   78 80  100/ 17/ 19 1018.7F   6/ 6
PENSACOLA BAY    1848   79 74              1020.3F
64 S DAUPHIN ISL 1900   81     100/ 17/ 21 1017.8
67 S FORT MORGAN 1830   81     100/ 21     1018.0F

$$

SELECTED LOCATIONS ACROSS THE REGION

CITY           SKY/WX    TMP DP  RH WIND       PRES   REMARKS
NEW ORLEANS    PTSUNNY   85  75  72 SE18      30.02F
GULFPORT       CLOUDY    84  74  71 E18G26    30.07F
PASCAGOULA AP  PTSUNNY   83  71  67 SE18G24   30.09F
PASCAGOULA*      N/A     79  73  83 E12         N/A
HATTIESBURG    CLOUDY    81  72  74 SE13      30.09F
LAUREL         CLOUDY    80  71  74 SE10      30.10F
MERIDIAN       CLOUDY    81  67  62 SE8       30.11F
JACKSON        PTSUNNY   84  70  62 SE14      30.06F
MONTGOMERY     MOSUNNY   82  62  50 SE12      30.17F
TROY           MOSUNNY   81  65  58 SE9       30.18F
ASHFORD*         N/A     79  66  65 E9        30.15F
DOTHAN         PTSUNNY   81  64  56 SE7       30.20F
PANAMA CITY    PTSUNNY   83  63  50 E12G18    30.12F

$$





USA.gov is the U.S. government's official web portal to all federal, state and local government web resources and services.